EW6254 Weather Reports


Display with metric or nautical units.
time (UTC)temp
F
wind
direction
speed
MPH
gust
MPH
rain 1hr
in
rain 24hr
in
rain mn
in
humidity
%
barometer
mb
20190120145622 9 220 3.0 15.0 0.00 0.00 0.00 75 1028.2
20190120144632 8 121 7.0 15.0 0.00 0.00 0.00 75 1028.2
20190120143607 8 90 5.0 14.0 0.00 0.00 0.00 75 1028.6
20190120142537 9 135 5.0 11.0 0.00 0.00 0.00 75 1028.2
20190120141507 9 165 4.0 8.0 0.00 0.00 0.00 77 1028.1
20190120140445 9 72 6.0 10.0 0.00 0.00 0.00 76 1028.6
20190120135426 9 113 5.0 10.0 0.00 0.00 0.00 76 1028.6
20190120134424 9 100 3.0 8.0 0.00 0.00 0.00 77 1028.5
20190120133353 9 113 3.0 9.0 0.00 0.00 0.00 77 1028.6
20190120132411 9 144 4.0 10.0 0.00 0.00 0.00 77 1028.3
20190120131412 9 161 5.0 11.0 0.00 0.00 0.00 77 1027.8
20190120130343 9 153 2.0 11.0 0.00 0.00 0.00 77 1028.0
20190120125339 9 140 3.0 9.0 0.00 0.00 0.00 76 1028.1
20190120124329 9 118 4.0 9.0 0.00 0.00 0.00 76 1028.1
20190120123333 9 158 4.0 8.0 0.00 0.00 0.00 76 1028.1
20190120122305 9 115 3.0 7.0 0.00 0.00 0.00 76 1028.2
20190120121309 9 103 1.0 5.0 0.00 0.00 0.00 77 1028.0
20190120120308 9 182 3.0 9.0 0.00 0.00 0.00 76 1027.8
20190120115307 9 134 3.0 9.0 0.00 0.00 0.00 76 1027.8
20190120114315 9 93 3.0 9.0 0.00 0.00 0.00 76 1027.5
20190120113239 9 120 4.0 12.0 0.00 0.00 0.00 76 1027.2
20190120112242 9 105 6.0 12.0 0.00 0.00 0.00 76 1026.9
20190120111232 10 62 5.0 8.0 0.00 0.00 0.00 75 1027.3
20190120110105 10 148 5.0 10.0 0.00 0.00 0.00 75 1028.1
20190120105035 10 146 3.0 10.0 0.00 0.00 0.00 75 1028.2
20190120104031 10 123 2.0 5.0 0.00 0.00 0.00 74 1028.5
20190120103002 10 117 2.0 6.0 0.00 0.00 0.00 74 1028.7
20190120101933 10 115 5.0 11.0 0.00 0.00 0.00 75 1028.5
20190120100901 10 109 5.0 11.0 0.00 0.00 0.00 75 1028.5
20190120095908 10 98 3.0 7.0 0.00 0.00 0.00 75 1028.7
20190120094838 11 104 2.0 6.0 0.00 0.00 0.00 75 1028.5
20190120093802 11 145 3.0 8.0 0.00 0.00 0.00 74 1028.6
20190120092818 10 93 2.0 8.0 0.00 0.00 0.00 74 1028.9
20190120091751 10 105 3.0 7.0 0.00 0.00 0.00 73 1028.7
20190120090751 10 132 3.0 7.0 0.00 0.00 0.00 74 1029.0
20190120085715 10 83 2.0 6.0 0.00 0.00 0.00 75 1029.3
20190120084702 10 106 2.0 4.0 0.00 0.00 0.00 75 1029.3
20190120083701 10 67 1.0 4.0 0.00 0.00 0.00 75 1029.6
20190120082658 10 53 1.0 4.0 0.00 0.00 0.00 76 1029.8
20190120081714 10 45 1.0 4.0 0.00 0.00 0.00 76 1029.8
20190120080709 10 344 1.0 3.0 0.00 0.00 0.00 77 1029.7
20190120075640 10 340 1.0 2.0 0.00 0.00 0.00 77 1029.8
20190120074646 10 327 0.0 1.0 0.00 0.00 0.00 77 1030.0
20190120073624 10 327 0.0 1.0 0.00 0.00 0.00 76 1029.8
20190120072636 10 327 0.0 1.0 0.00 0.00 0.00 76 1030.0
20190120071641 10 327 0.0 1.0 0.00 0.00 0.00 76 1030.1
20190120070630 10 327 0.0 1.0 0.00 0.00 0.00 76 1030.0
20190120065609 10 327 0.0 0.0 0.00 0.00 0.00 76 1030.2
20190120064537 10 327 0.0 0.0 0.00 0.00 0.00 75 1030.1
20190120063547 10 327 0.0 2.0 0.00 0.00 0.00 75 1029.8
20190120062533 10 327 0.0 2.0 0.00 0.00 0.00 75 1030.4
20190120061537 10 326 0.0 1.0 0.00 0.00 0.00 75 1030.6
20190120060526 10 327 0.0 2.0 0.00 0.00 0.00 75 1030.5
20190120055505 10 327 1.0 2.0 0.00 0.00 0.00 75 1030.2
20190120054444 10 327 0.0 2.0 0.00 0.00 0.00 75 1030.0
20190120053435 10 327 0.0 3.0 0.00 0.00 0.00 75 1029.9
20190120052447 10 327 1.0 3.0 0.00 0.00 0.00 75 1029.3
20190120051503 10 325 1.0 3.0 0.00 0.00 0.00 75 1029.3
20190120050431 9 322 0.0 2.0 0.00 0.00 0.00 75 1029.4
20190120045424 9 323 0.0 2.0 0.00 0.00 0.00 75 1029.0
20190120044349 9 323 0.0 2.0 0.00 0.00 0.00 75 1029.0
20190120043340 9 323 0.0 2.0 0.00 0.00 0.00 75 1028.9
20190120042359 9 323 0.0 3.0 0.00 0.00 0.00 74 1029.1
20190120041336 9 323 1.0 4.0 0.00 0.00 0.00 74 1029.2
20190120040354 9 319 2.0 4.0 0.00 0.00 0.00 74 1029.4
20190120035412 9 346 2.0 4.0 0.00 0.00 0.00 74 1029.3
20190120034425 9 355 1.0 4.0 0.00 0.00 0.00 74 1029.0
20190120033407 9 328 1.0 3.0 0.00 0.00 0.00 74 1029.3
20190120032340 9 329 1.0 4.0 0.00 0.00 0.00 74 1029.5
20190120031342 9 329 1.0 5.0 0.00 0.00 0.00 75 1029.8
20190120030331 9 343 1.0 9.0 0.00 0.00 0.00 75 1030.2
20190120025259 9 338 2.0 9.0 0.00 0.00 0.00 75 1029.9
20190120024315 9 345 3.0 7.0 0.00 0.00 0.00 75 1029.6
20190120023323 9 355 3.0 7.0 0.00 0.00 0.00 75 1029.4
20190120022308 9 340 3.0 6.0 0.00 0.00 0.00 75 1029.4
20190120021255 9 313 2.0 7.0 0.00 0.00 0.00 75 1029.5
20190120020256 9 10 2.0 7.0 0.00 0.00 0.00 74 1029.8
20190120015304 9 351 2.0 6.0 0.00 0.00 0.00 74 1029.5
20190120014256 9 336 2.0 6.0 0.00 0.00 0.00 73 1029.7
20190120013257 9 340 3.0 6.0 0.00 0.00 0.00 73 1029.9
20190120012305 9 338 3.0 10.0 0.00 0.00 0.00 73 1029.6
20190120011314 9 0 5.0 10.0 0.00 0.00 0.00 72 1030.2
20190120010247 9 337 4.0 9.0 0.00 0.00 0.00 72 1030.2
20190120005232 10 281 3.0 9.0 0.00 0.00 0.00 71 1029.9
20190120004220 10 342 4.0 9.0 0.00 0.00 0.00 70 1029.7
20190120003223 10 317 2.0 7.0 0.00 0.00 0.00 69 1029.9
20190120002234 10 339 4.0 10.0 0.00 0.00 0.00 68 1029.8
20190120001213 11 18 5.0 10.0 0.00 0.00 0.00 68 1029.6
20190120000203 11 336 4.0 8.0 0.00 0.00 0.00 68 1029.5
20190119235128 11 304 4.0 8.0 0.00 0.00 0.00 67 1029.4
20190119234131 11 343 3.0 8.0 0.00 0.00 0.00 66 1029.1
20190119233109 11 19 3.0 8.0 0.00 0.00 0.00 65 1028.7
20190119232112 11 327 3.0 9.0 0.00 0.00 0.00 64 1028.9
20190119231035 12 342 4.0 10.0 0.00 0.00 0.00 64 1029.0
20190119230018 12 323 5.0 11.0 0.00 0.00 0.00 64 1029.3
20190119225029 12 323 7.0 14.0 0.00 0.00 0.00 65 1029.6
20190119224027 12 345 5.0 14.0 0.00 0.00 0.00 66 1029.7
20190119223043 13 347 6.0 13.0 0.00 0.00 0.00 67 1029.7
20190119222018 13 308 8.0 14.0 0.00 0.00 0.00 67 1029.7
20190119220956 13 355 5.0 16.0 0.00 0.00 0.00 67 1029.6
20190119220003 13 306 8.0 16.0 0.00 0.00 0.00 66 1029.6
20190119215015 13 325 8.0 15.0 0.00 0.00 0.00 65 1029.7
20190119214022 13 319 6.0 15.0 0.00 0.00 0.00 63 1029.6
20190119213023 13 0 8.0 15.0 0.00 0.00 0.00 62 1029.4
20190119211955 13 5 7.0 14.0 0.00 0.00 0.00 63 1029.2
20190119210929 13 9 7.0 14.0 0.00 0.00 0.00 62 1028.7
20190119205915 13 28 6.0 13.0 0.00 0.00 0.00 62 1028.7
20190119204934 14 0 5.0 12.0 0.00 0.00 0.00 63 1028.6
20190119203942 14 350 5.0 10.0 0.00 0.00 0.00 65 1028.6
20190119203001 14 314 5.0 10.0 0.00 0.00 0.00 66 1028.4
20190119201950 14 17 4.0 10.0 0.00 0.00 0.00 69 1028.1
20190119200938 13 304 4.0 12.0 0.00 0.00 0.00 70 1028.3
20190119195904 12 355 7.0 13.0 0.00 0.00 0.00 69 1028.3
20190119194852 12 338 7.0 13.0 0.00 0.00 0.00 70 1028.9
20190119193836 13 11 4.0 13.0 0.00 0.00 0.00 71 1029.4
20190119192829 12 5 4.0 13.0 0.00 0.00 0.00 71 1029.9
20190119191757 12 316 4.0 13.0 0.00 0.00 0.00 72 1030.3
20190119190734 11 338 7.0 15.0 0.00 0.00 0.00 73 1030.4
20190119185709 11 317 8.0 15.0 0.00 0.00 0.00 72 1030.6
20190119184725 10 331 8.0 15.0 0.00 0.00 0.00 71 1030.7
20190119183745 10 355 5.0 12.0 0.00 0.00 0.00 71 1030.6
20190119182708 11 298 4.0 12.0 0.00 0.00 0.00 72 1030.5
20190119181727 10 339 4.0 12.0 0.00 0.00 0.00 73 1030.4
20190119180730 10 274 4.0 12.0 0.00 0.00 0.00 73 1030.5
20190119175701 9 12 6.0 15.0 0.00 0.00 0.00 74 1030.4
20190119174639 8 0 9.0 15.0 0.00 0.00 0.00 74 1030.3
20190119173629 9 346 5.0 17.0 0.00 0.00 0.00 75 1030.5
20190119172623 8 291 7.0 17.0 0.00 0.00 0.00 75 1030.6
20190119171627 9 318 4.0 14.0 0.00 0.00 0.00 76 1030.7
20190119170607 8 5 6.0 16.0 0.00 0.00 0.00 76 1030.9
20190119165558 8 304 6.0 16.0 0.00 0.00 0.00 77 1030.7
20190119164529 8 327 6.0 14.0 0.00 0.00 0.00 78 1030.6
20190119163509 7 355 6.0 14.0 0.00 0.00 0.00 78 1030.4
20190119162448 7 340 6.0 14.0 0.00 0.00 0.00 78 1030.3
20190119161443 7 0 5.0 12.0 0.00 0.00 0.00 78 1030.4
20190119160442 7 329 5.0 12.0 0.00 0.00 0.00 79 1030.0
20190119155500 7 316 5.0 14.0 0.00 0.00 0.00 80 1029.8
20190119154447 6 355 6.0 14.0 0.00 0.00 0.00 80 1029.7
20190119153426 6 355 6.0 14.0 0.00 0.00 0.00 80 1029.5
20190119152430 5 319 6.0 12.0 0.00 0.00 0.00 81 1029.3
20190119151433 5 340 8.0 17.0 0.00 0.00 0.00 81 1029.0
20190119150454 5 318 10.0 18.0 0.00 0.00 0.00 81 1029.0